CW5468 Weather Reports


Display with metric or nautical units.
time (UTC)temp
F
wind
direction
speed
MPH
gust
MPH
rain 1hr
in
rain 24hr
in
rain mn
in
humidity
%
barometer
mb
20190121113805 35 233 1.0 3.0 0.00 0.00 0.00 85 1022.0
20190121113305 35 230 0.0 5.0 0.00 0.00 0.00 86 1022.0
20190121112805 35 241 2.0 3.0 0.00 0.00 0.00 87 1022.1
20190121112306 35 273 1.0 3.0 0.00 0.00 0.00 89 1022.1
20190121111806 35 236 1.0 3.0 0.00 0.00 0.00 89 1022.1
20190121111305 34 215 2.0 3.0 0.00 0.01 0.00 90 1022.2
20190121110805 34 241 2.0 3.0 0.00 0.01 0.00 91 1022.2
20190121110305 34 223 2.0 3.0 0.00 0.01 0.00 91 1022.2
20190121105805 34 262 0.0 0.0 0.00 0.01 0.00 91 1022.2
20190121105306 33 261 0.0 0.0 0.00 0.01 0.00 91 1022.3
20190121104805 33 262 0.0 0.0 0.00 0.01 0.00 91 1022.4
20190121104305 33 261 0.0 0.0 0.00 0.01 0.00 92 1022.5
20190121103805 33 262 0.0 0.0 0.00 0.01 0.00 92 1022.5
20190121103305 33 261 0.0 0.0 0.00 0.01 0.00 92 1022.5
20190121102805 32 262 0.0 0.0 0.00 0.01 0.00 92 1022.5
20190121102306 32 262 0.0 0.0 0.00 0.01 0.00 92 1022.6
20190121101806 32 261 0.0 0.0 0.00 0.01 0.00 92 1022.6
20190121101305 32 262 0.0 0.0 0.00 0.01 0.00 92 1022.6
20190121100805 31 262 0.0 0.0 0.00 0.01 0.00 92 1022.6
20190121100305 31 262 0.0 0.0 0.00 0.01 0.00 92 1022.7
20190121095805 31 262 0.0 0.0 0.00 0.01 0.00 92 1022.7
20190121095306 30 262 0.0 0.0 0.00 0.01 0.00 92 1022.8
20190121094805 30 262 0.0 0.0 0.00 0.01 0.00 93 1022.8
20190121094305 30 262 0.0 0.0 0.00 0.01 0.00 92 1022.9
20190121093805 29 261 0.0 0.0 0.00 0.01 0.00 92 1022.8
20190121093305 28 262 0.0 0.0 0.00 0.01 0.00 92 1022.9
20190121092805 28 262 0.0 0.0 0.00 0.01 0.00 92 1022.9
20190121092305 27 261 0.0 0.0 0.00 0.01 0.00 92 1023.0
20190121091805 27 262 0.0 2.0 0.00 0.01 0.00 92 1022.9
20190121091306 27 258 1.0 2.0 0.00 0.01 0.00 92 1022.8
20190121090805 27 247 1.0 2.0 0.00 0.01 0.00 92 1022.8
20190121090305 27 246 1.0 2.0 0.00 0.01 0.00 92 1022.8
20190121085805 27 186 0.0 0.0 0.00 0.01 0.00 92 1022.8
20190121085306 28 186 0.0 0.0 0.00 0.01 0.00 92 1022.8
20190121084805 28 186 0.0 0.0 0.00 0.01 0.00 92 1022.7
20190121084305 27 186 0.0 0.0 0.00 0.01 0.00 92 1022.7
20190121083805 26 186 0.0 0.0 0.00 0.01 0.00 92 1022.7
20190121083306 26 186 0.0 0.0 0.00 0.01 0.00 92 1022.6
20190121082805 25 186 0.0 0.0 0.00 0.01 0.00 92 1022.6
20190121082306 25 186 0.0 0.0 0.00 0.01 0.00 92 1022.6
20190121081806 25 186 0.0 0.0 0.00 0.01 0.00 92 1022.5
20190121081305 25 186 0.0 0.0 0.00 0.01 0.00 92 1022.5
20190121080805 25 186 0.0 0.0 0.00 0.01 0.00 92 1022.4
20190121080305 24 186 0.0 0.0 0.00 0.01 0.00 92 1022.4
20190121075805 24 186 0.0 0.0 0.00 0.01 0.00 92 1022.4
20190121075306 23 186 0.0 0.0 0.00 0.01 0.00 92 1022.3
20190121074805 23 186 0.0 0.0 0.00 0.01 0.00 92 1022.3
20190121074306 22 186 0.0 0.0 0.00 0.01 0.00 92 1022.2
20190121073805 22 186 0.0 0.0 0.00 0.01 0.00 92 1022.2
20190121073305 21 186 0.0 0.0 0.00 0.01 0.00 92 1022.1
20190121072805 21 186 0.0 0.0 0.00 0.01 0.00 92 1022.1
20190121072306 20 186 0.0 0.0 0.00 0.01 0.00 91 1022.1
20190121071805 19 186 0.0 0.0 0.00 0.01 0.00 91 1022.0
20190121071305 19 186 0.0 0.0 0.00 0.01 0.00 91 1022.0
20190121070805 19 186 0.0 0.0 0.00 0.01 0.00 91 1021.9
20190121070305 18 186 0.0 0.0 0.00 0.01 0.00 91 1021.9
20190121065805 18 186 0.0 0.0 0.00 0.01 0.00 91 1021.8
20190121065312 18 186 0.0 0.0 0.00 0.01 0.00 91 1021.8
20190121064804 18 186 0.0 0.0 0.00 0.01 0.00 91 1021.7
20190121064305 18 186 0.0 0.0 0.00 0.01 0.00 91 1021.7
20190121063805 18 186 0.0 0.0 0.00 0.01 0.00 91 1021.7
20190121063304 18 186 0.0 0.0 0.00 0.01 0.00 91 1021.7
20190121062804 18 186 0.0 0.0 0.00 0.01 0.00 91 1021.7
20190121062305 18 186 0.0 0.0 0.00 0.01 0.00 91 1021.6
20190121061805 18 186 0.0 0.0 0.00 0.01 0.00 91 1021.6
20190121061304 18 186 0.0 0.0 0.00 0.01 0.00 91 1021.5
20190121060806 18 186 0.0 0.0 0.00 0.01 0.00 91 1021.5
20190121060305 18 186 0.0 0.0 0.00 0.01 0.00 91 1021.4
20190121055804 18 186 0.0 0.0 0.00 0.01 0.00 91 1021.3
20190121055304 18 186 0.0 0.0 0.00 0.01 0.00 91 1021.4
20190121054805 18 186 0.0 0.0 0.00 0.01 0.00 91 1021.4
20190121054305 18 186 0.0 0.0 0.00 0.01 0.00 91 1021.3
20190121053804 18 186 0.0 0.0 0.00 0.01 0.00 91 1021.4
20190121053305 18 186 0.0 0.0 0.00 0.01 0.00 91 1021.2
20190121052805 19 186 0.0 0.0 0.00 0.01 0.00 91 1021.2
20190121052305 18 186 0.0 0.0 0.00 0.01 0.00 91 1021.1
20190121051804 18 186 0.0 0.0 0.00 0.01 0.00 91 1021.1
20190121051305 18 186 0.0 0.0 0.00 0.01 0.00 91 1021.1
20190121050805 18 186 0.0 0.0 0.00 0.01 0.00 91 1021.1
20190121050304 18 186 0.0 0.0 0.00 0.01 0.00 91 1021.1
20190121045806 18 186 0.0 0.0 0.00 0.01 0.00 91 1021.0
20190121045305 18 186 0.0 0.0 0.00 0.01 0.00 91 1021.0
20190121044804 18 186 0.0 0.0 0.00 0.01 0.00 91 1020.9
20190121044304 18 186 0.0 0.0 0.00 0.01 0.00 91 1020.9
20190121043805 18 186 0.0 0.0 0.00 0.01 0.00 91 1020.9
20190121043305 18 188 0.0 0.0 0.00 0.01 0.00 91 1020.8
20190121042805 18 188 0.0 0.0 0.00 0.01 0.00 91 1020.8
20190121042306 18 188 0.0 0.0 0.00 0.01 0.00 91 1020.8
20190121041805 18 188 0.0 0.0 0.00 0.01 0.00 91 1020.8
20190121041304 18 188 0.0 0.0 0.00 0.01 0.00 91 1020.7
20190121040804 18 188 0.0 0.0 0.00 0.01 0.00 91 1020.7
20190121040305 18 188 0.0 0.0 0.00 0.01 0.00 91 1020.6
20190121035805 18 188 0.0 0.0 0.00 0.01 0.00 91 1020.5
20190121035304 18 188 0.0 0.0 0.00 0.01 0.00 91 1020.5
20190121034805 18 188 0.0 0.0 0.00 0.01 0.00 91 1020.5
20190121034305 18 188 0.0 0.0 0.00 0.01 0.00 91 1020.6
20190121033804 18 188 0.0 0.0 0.00 0.01 0.00 91 1020.6
20190121033304 18 188 0.0 0.0 0.00 0.01 0.00 91 1020.6
20190121032805 18 188 0.0 0.0 0.00 0.01 0.00 91 1020.6
20190121032305 18 188 0.0 0.0 0.00 0.01 0.00 91 1020.6
20190121031804 18 188 0.0 0.0 0.00 0.01 0.00 91 1020.6
20190121031305 18 188 0.0 0.0 0.00 0.01 0.00 91 1020.6
20190121030805 18 188 0.0 0.0 0.00 0.01 0.00 91 1020.5
20190121030305 18 188 0.0 0.0 0.00 0.01 0.00 91 1020.4
20190121025805 17 188 0.0 0.0 0.00 0.01 0.00 91 1020.5
20190121025304 17 188 0.0 0.0 0.00 0.01 0.00 91 1020.4
20190121024805 17 188 0.0 0.0 0.00 0.01 0.00 91 1020.4
20190121024305 17 188 0.0 0.0 0.00 0.01 0.00 91 1020.4
20190121023804 17 188 0.0 0.0 0.00 0.01 0.00 91 1020.4
20190121023304 17 188 0.0 0.0 0.00 0.01 0.00 91 1020.4
20190121022805 17 189 0.0 0.0 0.00 0.01 0.00 91 1020.3
20190121022304 17 188 0.0 0.0 0.00 0.01 0.00 91 1020.3
20190121021805 18 188 0.0 0.0 0.00 0.01 0.00 91 1020.2
20190121021305 18 188 0.0 0.0 0.00 0.01 0.00 91 1020.2
20190121020804 18 188 0.0 0.0 0.00 0.01 0.00 91 1020.2
20190121020305 18 188 0.0 0.0 0.00 0.01 0.00 91 1020.2
20190121015806 18 188 0.0 0.0 0.00 0.01 0.00 91 1020.2
20190121015306 18 188 0.0 0.0 0.00 0.01 0.00 91 1020.2
20190121014805 18 188 0.0 0.0 0.00 0.01 0.00 91 1020.2
20190121014305 18 188 0.0 0.0 0.00 0.01 0.00 91 1020.1
20190121013805 18 188 0.0 0.0 0.00 0.01 0.00 91 1020.2
20190121013305 18 188 0.0 0.0 0.00 0.01 0.00 91 1020.2
20190121012805 18 188 0.0 0.0 0.00 0.01 0.00 91 1020.2
20190121012305 18 188 0.0 0.0 0.00 0.01 0.00 91 1020.2
20190121011805 18 188 0.0 0.0 0.00 0.01 0.00 91 1020.2
20190121011304 18 188 0.0 0.0 0.00 0.01 0.00 91 1020.1
20190121010806 18 188 0.0 0.0 0.00 0.01 0.00 91 1020.1
20190121010305 19 188 0.0 0.0 0.00 0.01 0.00 91 1020.1
20190121005804 19 188 0.0 0.0 0.00 0.01 0.00 91 1020.1
20190121005305 19 188 0.0 0.0 0.00 0.01 0.00 91 1020.0
20190121004805 19 189 0.0 0.0 0.00 0.01 0.00 91 1020.0
20190121004305 19 188 0.0 0.0 0.00 0.01 0.00 91 1020.0
20190121003804 19 188 0.0 0.0 0.00 0.01 0.00 91 1019.9
20190121003305 19 188 0.0 0.0 0.00 0.01 0.00 91 1019.8
20190121002805 19 188 0.0 0.0 0.00 0.01 0.00 91 1019.7
20190121002305 20 188 0.0 0.0 0.00 0.01 0.00 91 1019.7
20190121001805 20 188 0.0 0.0 0.00 0.01 0.00 91 1019.7
20190121001304 20 188 0.0 0.0 0.00 0.01 0.00 91 1019.8
20190121000804 20 188 0.0 0.0 0.00 0.01 0.00 91 1019.7
20190121000305 21 188 0.0 0.0 0.00 0.01 0.00 91 1019.7
20190120235805 21 188 0.0 0.0 0.00 0.01 0.00 91 1019.7
20190120235304 21 188 0.0 0.0 0.00 0.01 0.00 91 1019.6
20190120234805 22 188 0.0 0.0 0.00 0.01 0.00 91 1019.7
20190120234305 22 188 0.0 0.0 0.00 0.01 0.00 91 1019.6
20190120233805 22 188 0.0 0.0 0.00 0.01 0.00 91 1019.6
20190120233305 22 188 0.0 0.0 0.00 0.01 0.00 91 1019.6
20190120232805 22 188 0.0 0.0 0.00 0.01 0.00 91 1019.5
20190120232305 22 188 0.0 0.0 0.00 0.01 0.00 91 1019.4
20190120231805 22 188 0.0 0.0 0.00 0.01 0.00 91 1019.5
20190120231305 22 188 0.0 0.0 0.00 0.01 0.00 91 1019.4
20190120230810 22 188 0.0 0.0 0.00 0.01 0.00 91 1019.4
20190120230305 23 188 0.0 0.0 0.00 0.01 0.00 91 1019.4
20190120225805 23 188 0.0 0.0 0.00 0.01 0.01 91 1019.4
20190120225305 23 188 0.0 0.0 0.00 0.01 0.01 91 1019.4
20190120224805 23 188 0.0 0.0 0.00 0.01 0.01 91 1019.3
20190120224305 23 188 0.0 0.0 0.00 0.01 0.01 91 1019.4
20190120223804 24 188 0.0 0.0 0.00 0.01 0.01 92 1019.4
20190120223305 24 188 0.0 0.0 0.00 0.01 0.01 91 1019.4
20190120222804 24 188 0.0 0.0 0.00 0.01 0.01 91 1019.5
20190120222304 24 188 0.0 0.0 0.00 0.01 0.01 91 1019.5
20190120221805 24 188 0.0 0.0 0.00 0.01 0.01 92 1019.4
20190120221304 24 188 0.0 0.0 0.00 0.01 0.01 91 1019.4
20190120220805 24 188 0.0 0.0 0.00 0.01 0.01 91 1019.4
20190120220304 24 188 0.0 0.0 0.00 0.01 0.01 91 1019.4
20190120215804 24 189 0.0 0.0 0.00 0.01 0.01 91 1019.4
20190120215305 24 188 0.0 0.0 0.00 0.01 0.01 91 1019.4
20190120214804 24 188 0.0 0.0 0.00 0.01 0.01 91 1019.3
20190120214304 24 188 0.0 0.0 0.00 0.01 0.01 91 1019.3
20190120213805 24 188 0.0 0.0 0.00 0.01 0.01 91 1019.3
20190120213304 24 188 0.0 0.0 0.00 0.01 0.01 91 1019.2
20190120212805 24 188 0.0 0.0 0.00 0.01 0.01 91 1019.1
20190120212305 24 188 0.0 0.0 0.00 0.01 0.01 91 1019.1
20190120211804 24 188 0.0 0.0 0.00 0.01 0.01 91 1019.0
20190120211304 24 188 0.0 0.0 0.00 0.01 0.01 91 1018.9
20190120210805 24 188 0.0 2.0 0.00 0.01 0.01 91 1018.9
20190120210304 23 197 2.0 3.0 0.00 0.01 0.01 91 1018.9
20190120205805 23 207 0.0 2.0 0.00 0.01 0.01 90 1018.8
20190120205304 23 207 1.0 2.0 0.00 0.01 0.01 90 1018.8
20190120204804 23 208 0.0 2.0 0.00 0.01 0.01 90 1018.8
20190120204306 23 208 0.0 2.0 0.00 0.01 0.01 90 1018.8
20190120203804 23 227 0.0 2.0 0.00 0.01 0.01 90 1018.7
20190120203304 23 250 0.0 0.0 0.00 0.01 0.01 90 1018.6
20190120202804 23 250 0.0 0.0 0.00 0.01 0.01 90 1018.6
20190120202304 24 257 0.0 0.0 0.00 0.01 0.01 90 1018.5
20190120201805 24 323 0.0 0.0 0.00 0.01 0.01 90 1018.5
20190120201305 24 324 0.0 0.0 0.00 0.01 0.01 90 1018.5
20190120200805 25 324 0.0 0.0 0.00 0.01 0.01 90 1018.4
20190120200304 25 324 0.0 0.0 0.00 0.01 0.01 90 1018.4
20190120195805 25 324 0.0 0.0 0.00 0.01 0.01 90 1018.4
20190120195305 25 324 0.0 0.0 0.00 0.01 0.01 90 1018.3
20190120194804 25 324 0.0 0.0 0.00 0.01 0.01 90 1018.3
20190120194305 26 324 0.0 0.0 0.00 0.01 0.01 90 1018.3
20190120193805 26 324 0.0 0.0 0.00 0.01 0.01 90 1018.2
20190120193304 26 324 0.0 0.0 0.00 0.01 0.01 90 1018.2
20190120192806 26 324 0.0 0.0 0.00 0.01 0.01 90 1018.1
20190120192304 26 324 0.0 0.0 0.00 0.01 0.01 90 1018.1
20190120191804 26 324 0.0 0.0 0.00 0.01 0.01 90 1018.0
20190120191305 27 324 0.0 0.0 0.00 0.01 0.01 90 1018.0
20190120190804 27 324 0.0 0.0 0.00 0.01 0.01 90 1018.0
20190120190305 27 324 0.0 0.0 0.00 0.01 0.01 90 1018.0
20190120185805 27 324 0.0 0.0 0.00 0.01 0.01 90 1017.9
20190120185304 27 324 0.0 0.0 0.00 0.01 0.01 90 1017.8
20190120184804 27 324 0.0 0.0 0.00 0.01 0.01 90 1017.8
20190120184304 28 324 0.0 0.0 0.00 0.01 0.01 90 1017.8
20190120183804 28 324 0.0 0.0 0.00 0.01 0.01 90 1017.8
20190120183304 28 324 0.0 0.0 0.00 0.01 0.01 90 1017.7
20190120182804 28 324 0.0 0.0 0.00 0.01 0.01 90 1017.6
20190120182304 28 324 0.0 0.0 0.00 0.01 0.01 90 1017.6
20190120181804 28 324 0.0 0.0 0.00 0.01 0.01 90 1017.6
20190120181305 29 324 0.0 0.0 0.00 0.01 0.01 90 1017.5
20190120180804 29 324 0.0 0.0 0.00 0.01 0.01 90 1017.5
20190120180304 29 324 0.0 0.0 0.00 0.01 0.01 90 1017.4
20190120175804 29 324 0.0 0.0 0.00 0.01 0.01 90 1017.4
20190120175306 30 325 0.0 0.0 0.00 0.01 0.01 90 1017.3
20190120174804 30 324 0.0 0.0 0.00 0.01 0.01 90 1017.3
20190120174304 30 324 0.0 0.0 0.00 0.01 0.01 90 1017.3
20190120173804 30 324 0.0 0.0 0.00 0.01 0.01 90 1017.2
20190120173305 30 324 0.0 0.0 0.00 0.01 0.01 89 1017.1
20190120172805 30 324 0.0 0.0 0.00 0.01 0.01 90 1017.0
20190120172304 30 324 0.0 0.0 0.00 0.01 0.01 90 1017.0
20190120171804 30 324 0.0 0.0 0.00 0.01 0.01 90 1017.0
20190120171305 30 324 0.0 0.0 0.00 0.01 0.01 90 1017.0
20190120170804 31 324 0.0 0.0 0.00 0.01 0.01 90 1016.9
20190120170304 31 324 0.0 0.0 0.00 0.01 0.01 90 1016.8
20190120165805 31 324 0.0 0.0 0.00 0.01 0.01 90 1016.8
20190120165305 31 324 0.0 0.0 0.00 0.01 0.01 90 1016.8
20190120164804 31 324 0.0 0.0 0.00 0.01 0.01 90 1016.7
20190120164305 31 324 0.0 0.0 0.00 0.01 0.01 90 1016.7
20190120163805 31 324 0.0 0.0 0.00 0.01 0.01 89 1016.7
20190120163304 31 324 0.0 0.0 0.00 0.01 0.01 89 1016.7
20190120162805 31 324 0.0 0.0 0.00 0.01 0.01 89 1016.6
20190120162304 31 324 0.0 0.0 0.00 0.01 0.01 89 1016.6
20190120161804 31 324 0.0 0.0 0.00 0.01 0.01 89 1016.5
20190120161304 31 324 0.0 0.0 0.00 0.01 0.01 89 1016.5
20190120160805 31 324 0.0 0.0 0.00 0.01 0.01 89 1016.4
20190120160304 31 324 0.0 0.0 0.00 0.01 0.01 89 1016.4
20190120155804 31 324 0.0 0.0 0.00 0.01 0.01 89 1016.4
20190120155304 32 324 0.0 0.0 0.00 0.01 0.01 89 1016.4
20190120154804 32 324 0.0 0.0 0.00 0.01 0.01 89 1016.4
20190120154304 32 324 0.0 0.0 0.00 0.01 0.01 89 1016.3
20190120153804 32 324 0.0 0.0 0.00 0.01 0.01 89 1016.3
20190120153304 32 324 0.0 0.0 0.00 0.01 0.01 89 1016.3
20190120152804 32 324 0.0 0.0 0.00 0.01 0.01 89 1016.3
20190120152305 32 324 0.0 0.0 0.00 0.01 0.01 89 1016.3
20190120151804 32 324 0.0 2.0 0.00 0.01 0.01 89 1016.3
20190120151304 32 324 0.0 2.0 0.00 0.01 0.01 89 1016.2
20190120150804 32 325 0.0 2.0 0.00 0.01 0.01 89 1016.2
20190120150304 32 325 1.0 3.0 0.00 0.01 0.01 89 1016.2
20190120145804 32 303 0.0 2.0 0.00 0.01 0.01 89 1016.2
20190120145304 32 303 1.0 3.0 0.00 0.01 0.01 89 1016.2
20190120144805 32 314 1.0 3.0 0.00 0.01 0.01 89 1016.2
20190120144304 32 312 1.0 3.0 0.00 0.01 0.01 89 1016.1
20190120143804 32 308 1.0 3.0 0.00 0.01 0.01 89 1016.1
20190120143305 32 296 1.0 3.0 0.00 0.01 0.01 89 1016.0
20190120142804 32 307 2.0 5.0 0.00 0.01 0.01 89 1016.0
20190120142304 32 312 2.0 6.0 0.00 0.01 0.01 89 1015.9
20190120141805 32 301 3.0 3.0 0.00 0.01 0.01 89 1015.9
20190120141306 33 329 1.0 3.0 0.00 0.01 0.01 89 1015.9
20190120140804 32 336 1.0 3.0 0.00 0.01 0.01 89 1015.8
20190120140305 32 321 2.0 5.0 0.00 0.01 0.01 89 1015.8
20190120135805 32 330 1.0 3.0 0.00 0.01 0.01 89 1015.9
20190120135306 32 317 2.0 3.0 0.00 0.01 0.01 89 1015.9
20190120134806 32 327 1.0 5.0 0.00 0.01 0.01 89 1015.8
20190120134306 33 312 2.0 5.0 0.00 0.01 0.01 89 1015.8
20190120133805 33 300 1.0 3.0 0.00 0.01 0.01 89 1015.8
20190120133305 32 300 0.0 2.0 0.00 0.01 0.01 89 1015.8
20190120132806 32 296 2.0 3.0 0.00 0.01 0.01 89 1015.9
20190120132305 32 316 1.0 5.0 0.00 0.01 0.01 89 1015.9
20190120131805 32 312 2.0 3.0 0.00 0.01 0.01 89 1015.8
20190120131306 32 302 2.0 5.0 0.00 0.01 0.01 89 1015.9
20190120130805 32 287 2.0 3.0 0.00 0.01 0.01 89 1015.9
20190120130305 32 315 3.0 5.0 0.00 0.01 0.01 89 1015.8
20190120125807 32 311 2.0 5.0 0.00 0.01 0.01 89 1015.9
20190120125306 32 332 2.0 5.0 0.00 0.01 0.01 89 1015.9
20190120124805 32 298 1.0 5.0 0.00 0.01 0.01 89 1015.9
20190120124306 32 303 2.0 6.0 0.00 0.01 0.01 89 1015.9
20190120123806 32 311 2.0 5.0 0.00 0.01 0.01 89 1015.9
20190120123306 32 310 2.0 3.0 0.00 0.01 0.01 89 1015.9
20190120122805 32 312 2.0 3.0 0.00 0.01 0.01 89 1015.9
20190120122306 32 302 2.0 3.0 0.00 0.01 0.01 89 1015.9
20190120121806 32 303 3.0 5.0 0.00 0.01 0.01 88 1015.9
20190120121306 32 310 2.0 3.0 0.01 0.01 0.01 88 1016.0
20190120120807 32 307 1.0 3.0 0.01 0.01 0.01 88 1016.0
20190120120306 32 312 2.0 3.0 0.01 0.01 0.01 88 1016.0
20190120115805 33 326 2.0 3.0 0.01 0.01 0.01 88 1016.1
20190120115306 33 288 0.0 3.0 0.01 0.01 0.01 88 1016.1
20190120114806 33 306 0.0 3.0 0.01 0.01 0.01 88 1016.1
20190120114306 33 306 2.0 3.0 0.01 0.01 0.01 88 1016.1